Weather in Bolshaya Berestovitsa

Belarus     53˚11′30″N   24˚01′06″E
temp.,
°C
wind,
m/s
gust,
m/s
humid.,
%
clouds,
%
prec.,
mm/h
press.,
hPa
HPBL,
m
27 november, fri
fri2700:00+1˚wsw5108580 0.0 1016391
03:00+1˚wsw5119082 0.0 1015363
06:00+4˚wsw61292100 0.2 1014535
09:00+4˚w71387100 0.2 1013622
12:00+5˚wnw8128094 0.0 1015931
15:00+5˚w598388 0.1 1015675
18:00+5˚w5108290 0.6 1016517
21:00+3˚wnw4108964 0.9 1015356
28 november, sat
sat2800:00+2˚wnw5118959 0.3 1015496
03:00+2˚wnw469579 1.9 1016422
06:00n4791100 1.2 1016503
09:00−2˚nne479483 1.3 1018324
12:00nne568192 0.1 1018722
15:00n357796 0.1 1019681
18:00−1˚wnw1298100 0.3 1019148
21:00nw2498100 1.4 1019194
29 november, sun
sun2900:00nw2399100 0.8 1019130
03:00e4597100 2.0 1020295
06:00−3˚ene359190 0.2 1019140
09:00−3˚ne349658 0.2 1020122
12:00ne359467 0.1 1020345
15:00ne359784 0.3 1020283
18:00ne2596100 0.2 1020206
21:00ne3697100 0.4 1021348
30 november, mon
mon3000:00−1˚nne249892 0.1 1021139
03:00−3˚nnw239782 0.1 102266
06:00−2˚nnw239884 0.1 1022142
09:00−3˚wnw229663 0.1 102435
12:00−1˚w349054 0.0 1025299
15:00wsw348166 0.0 1026670
18:00−1˚sw468493 0.0 1027534
21:00−1˚sw468197 0.1 1028570
1 december, tue
tue100:00−1˚sw4779100 0.0 1028706
03:00−1˚sw5878100 0.0 1027747
06:00−1˚sw5983100 0.0 1027591
09:00−2˚ssw51085100 0.0 1026428
12:00−1˚s587798 0.0 1026609
15:00−1˚s577798 0.0 1025726
18:00−2˚sse3684100 0.0 1025248
21:00−3˚sse498997 0.0 1026321